Location: Unspecified
(0.0000°N, 0.0000°E)
Time: 08:06:41
(UTC+00:00)

Vanguard 1 Rocket - Visible Passes

Search period start: 08 February 2023 00:00
Search period end: 18 February 2023 00:00
Orbit: 651 x 4224 km, 34.3° (Epoch: 07 February)

Date Brightness Start Highest point End Pass type
(mag) Time Alt. Az. Time Alt. Az. Time Alt. Az.
08 Feb 10.7 19:20:20 10° WNW 19:46:14 74° SW 20:07:48 10° SE visible
08 Feb 11.2 21:59:21 10° W 22:19:17 30° SW 22:33:09 10° SSE visible
09 Feb 10.7 18:06:03 10° NW 18:30:21 84° NE 18:54:36 10° SE visible
09 Feb 11.1 20:39:52 10° WNW 21:04:04 45° SW 21:22:06 10° SSE visible
09 Feb 11.2 23:28:25 10° SW 23:37:52 15° SSW 23:45:12 10° S visible
10 Feb 9.7 04:39:05 10° S 04:41:50 14° SSE 04:44:13 10° SE visible
10 Feb 10.9 19:23:09 10° WNW 19:48:25 63° SW 20:10:07 10° SE visible
10 Feb 11.3 22:04:20 10° W 22:22:24 25° SSW 22:35:24 10° SSE visible
11 Feb 10.8 18:08:32 10° NW 18:32:29 84° SW 18:57:05 10° SE visible
11 Feb 11.3 20:43:44 10° W 21:06:42 38° SW 21:24:20 10° SSE visible
11 Feb 11.2 23:34:50 10° SW 23:41:52 13° SSW 23:47:38 10° S visible
12 Feb 9.1 04:40:21 10° SSW 04:45:04 23° SSE 04:48:44 10° E visible
12 Feb 11.1 19:26:17 10° WNW 19:50:45 54° SW 20:12:21 10° SE visible
12 Feb 11.3 22:09:52 10° WSW 22:25:53 21° SSW 22:37:48 10° SSE visible
13 Feb 9.9 03:29:24 10° S 03:32:57 14° SSE 03:35:49 10° SE visible
13 Feb 11.0 18:11:14 10° WNW 18:34:40 73° SW 18:59:24 10° SE visible
13 Feb 11.4 20:48:08 10° W 21:09:39 32° SSW 21:26:36 10° SSE visible
13 Feb 11.2 23:40:36 10° SSW 23:46:07 12° SSW 23:50:47 10° S visible
14 Feb 8.2 04:42:18 10° SW 04:48:10 39° SSE 04:52:25 10° ENE visible
14 Feb 11.3 19:29:48 10° WNW 19:53:19 45° SW 20:14:32 10° SE visible
14 Feb 11.3 22:15:44 10° WSW 22:29:47 18° SSW 22:40:29 10° SSE visible
15 Feb 9.4 03:34:41 20° S 03:36:23 22° SSE 03:40:32 10° ESE visible
15 Feb 11.2 18:14:11 10° WNW 18:36:59 62° SW 19:01:35 10° SE visible
15 Feb 11.4 20:53:01 10° WSW 21:13:01 27° SSW 21:28:59 10° SSE visible
15 Feb 11.2 23:44:52 10° SSW 23:50:31 12° S 23:53:12 11° S visible
16 Feb 7.2 04:46:01 16° SW 04:51:10 70° SE 04:55:37 10° ENE visible
16 Feb 11.5 19:33:43 10° W 19:56:10 38° SSW 20:16:45 10° SSE visible
16 Feb 11.3 22:21:31 10° SW 22:34:00 16° SSW 22:43:40 10° SSE visible
17 Feb 8.8 03:39:48 34° SSE 03:39:48 34° SSE 03:44:25 10° E visible
17 Feb 11.4 18:17:26 10° WNW 18:39:30 53° SW 19:03:42 10° SE visible
17 Feb 11.4 20:58:22 10° WSW 21:16:47 23° SSW 21:31:38 10° SSE visible
